Location: Proctor
(47.8934°N, 114.3048°W)
Time: 21:55:35
(UTC+00:00)

Tiros 1 despin weight - Pass Details

Date: 27 June 2024
Orbit: 576 x 620 km, 48.2° (Epoch: 19 July)

Event Time Altitude Azimuth Distance (km) Brightness Sun altitude
Rises 01:03:54 0° 276° (W) 2,891 ? 23.0°
Reaches altitude 10° 01:08:20 10° 236° (WSW) 1,972 ? 22.3°
Maximum altitude 01:09:05 10° 227° (SW) 1,944 ? 22.2°
Drops below altitude 10° 01:09:51 10° 217° (SW) 1,966 ? 22.0°
Sets 01:14:15 0° 176° (S) 2,851 ? 21.3°
